Погода в Зелена-Гуре

Польша     51°56′13″N   15°30′20″E
темп.,
°C
ветер,
м/с
пор.,
м/с
влажн.,
%
обл.,
%
осадки,
мм/ч
давл.,
гПа
погр.,
м
3 августа, вт
вт323:00+16юз236078 0.0 101356
02:00+13зюз22736 0.0 101427
05:00+12зюз22805 0.0 101440
08:00+16з236452 0.0 1015301
11:00+18юз235993 0.0 1015583
14:00+23юз244492 0.1 10132118
17:00+21з2355100 0.4 10131240
20:00+18юз1274100 1.6 101319
4 августа, ср
ср423:00+15ююз118694 0.6 101311
02:00+15ю1190100 1.2 101412
05:00+14всв0094100 0.9 101312
08:00+16вюв118696 1.5 1014174
11:00+20ю226464 0.9 1014687
14:00+22с015991 3.8 10121243
17:00+20юз1176100 4.4 101283
20:00+18вюв118290 5.9 101212
5 августа, чт
чт523:00+16ююв1186100 0.2 101311
02:00+15св119148 0.3 101214
05:00+14св1194100 0.0 101122
08:00+16всв248688 0.0 1011279
11:00+20в346958 0.4 10101041
14:00+22в446198 2.1 10091342
17:00+22вюв355989 1.0 10081259
20:00+18вюв227995 2.1 100833
6 августа, пт
пт623:00+16ю1190100 0.9 100918
02:00+15ю1191100 1.0 100811
05:00+15зюз1191100 0.0 100811
08:00+16вюв1293100 1.5 100882
11:00+18вюв2380100 0.1 1008315
14:00+22в225626 0.1 10081114
17:00+23в32537 0.0 10081374
20:00+19юв22695 0.0 100818
7 августа, сб
сб723:00+16ююв22762 0.0 100918
02:00+15ююв22815 0.0 101036
05:00+14ю22918 0.0 101033
08:00+18юз23775 0.0 1010271
11:00+23юз2355100 0.0 10101277
14:00+26ююз344329 0.0 10082138
17:00+27юз3439100 0.0 10082202
20:00+22ююз1159100 0.0 100816